Weather History for Pagosa Springs, CO

Change the Weather History Date:

Saturday, October 13, 2012

  Actual Average (KDRO) Record (KDRO)
Temperature  
Mean Temperature 40 °F 48 °F  
Max Temperature 50 °F 64 °F 77 °F (1989)
Min Temperature 29 °F 32 °F 18 °F (2008)
Degree Days  
Heating Degree Days 26 17  
Month to date heating degree days 190  
Since 1 July heating degree days 414  
Cooling Degree Days 0 0  
Month to date cooling degree days 0  
Year to date cooling degree days 243  
Moisture  
Dew Point 31 °F    
Average Humidity 78    
Maximum Humidity 96    
Minimum Humidity 51    
Precipitation  
Precipitation 0.00 in 0.05 in 0.87 in (1985)
Month to date precipitation 0.66  
Year to date precipitation 12.54  
Sea Level Pressure  
Sea Level Pressure 30.20 in    
Wind  
Wind Speed 1 mph (East)    
Max Wind Speed 5 mph    
Max Gust Speed -    
Visibility 10 miles    
Events      
T = Trace of Precipitation, MM = Missing Value Source: NWS Daily Summary

Daily Weather History Graph

Daily Weather History Graph

Search for Another Location

Airport:

Trip Planner

Search our weather history database for the weather conditions in past years. The results will help you decide how hot, cold, wet, or windy it might be!

Date:

Astronomy

Oct. 13, 2012 Rise Set
Actual Time 7:14 AM MDT 6:33 PM MDT
Civil Twilight 6:48 AM MDT 6:59 PM MDT
Nautical Twilight 6:18 AM MDT 7:29 PM MDT
Astronomical Twilight 5:48 AM MDT 7:59 PM MDT
Moon 5:09 AM MDT (10/13) 5:17 PM MDT (10/13)
Length of Visible Light 12h 10m
Length of Day
11h 18m
Waning Crescent, 4% of the Moon is Illuminated
Oct 13
Waning Crescent
Oct 15
New
Oct 21
First Quarter
Oct 29
Full
Nov 6
Last Quarter

Hourly Weather History & Observations

Time (MDT) Temp. Windchill Dew Point Humidity Pressure Visibility Wind Dir Wind Speed Gust Speed Precip Events Conditions
12:15 AM 33.4 °F 30.4 °F 30.0 °F 87% 30.16 in 10.0 mi NE 3.5 mph - N/A   Clear
12:35 AM 32.0 °F - 30.0 °F 92% 30.15 in 10.0 mi Calm Calm - N/A   Clear
12:55 AM 32.4 °F - 30.2 °F 92% 30.15 in 10.0 mi Calm Calm - N/A   Clear
1:15 AM 32.0 °F - 29.1 °F 89% 30.16 in 10.0 mi Calm Calm - N/A   Clear
1:35 AM 32.0 °F - 29.3 °F 90% 30.16 in 10.0 mi Calm Calm - N/A   Clear
1:55 AM 31.5 °F - 28.9 °F 90% 30.15 in 10.0 mi Calm Calm - N/A   Clear
2:15 AM 30.7 °F - 28.2 °F 90% 30.15 in 10.0 mi Calm Calm - N/A   Clear
2:35 AM 32.0 °F - 28.8 °F 88% 30.14 in 10.0 mi Calm Calm - N/A   Clear
2:55 AM 32.2 °F 27.7 °F 28.4 °F 86% 30.14 in 10.0 mi NNE 4.6 mph - N/A   Clear
3:15 AM 31.6 °F - 28.4 °F 88% 30.14 in 10.0 mi Calm Calm - N/A   Clear
3:35 AM 32.0 °F - 28.2 °F 86% 30.13 in 10.0 mi Calm Calm - N/A   Clear
3:55 AM 31.5 °F - 28.4 °F 88% 30.14 in 10.0 mi Calm Calm - N/A   Clear
4:15 AM 32.0 °F - 29.1 °F 89% 30.14 in 10.0 mi Calm Calm - N/A   Scattered Clouds
4:35 AM 29.3 °F - 27.5 °F 93% 30.14 in 10.0 mi Calm Calm - N/A   Scattered Clouds
4:55 AM 29.1 °F - 27.5 °F 94% 30.14 in 10.0 mi Calm Calm - N/A   Clear
5:15 AM 29.5 °F - 27.3 °F 92% 30.15 in 10.0 mi Calm Calm - N/A   Clear
5:35 AM 29.3 °F - 26.2 °F 88% 30.15 in 10.0 mi Calm Calm - N/A   Clear
5:55 AM 30.0 °F 26.5 °F 28.4 °F 94% 30.16 in 10.0 mi NE 3.5 mph - N/A   Mostly Cloudy
6:15 AM 31.6 °F - 28.4 °F 88% 30.16 in 10.0 mi Calm Calm - N/A   Overcast
6:35 AM 31.6 °F - 28.6 °F 88% 30.17 in 10.0 mi Calm Calm - N/A   Overcast
6:55 AM 32.2 °F - 29.1 °F 88% 30.16 in 10.0 mi Calm Calm - N/A   Mostly Cloudy
7:15 AM 30.6 °F - 28.4 °F 92% 30.17 in 10.0 mi Calm Calm - N/A   Overcast
7:55 AM 32.0 °F - 28.8 °F 88% 30.17 in 10.0 mi Calm Calm - N/A   Overcast
8:35 AM 32.9 °F - 30.0 °F 89% 30.19 in 10.0 mi Calm Calm - N/A   Overcast
8:55 AM 34.2 °F - 31.5 °F 90% 30.19 in 10.0 mi Calm Calm - N/A   Overcast
9:35 AM 36.7 °F - 30.6 °F 78% 30.19 in 10.0 mi Calm Calm - N/A   Overcast
9:55 AM 37.2 °F - 29.7 °F 74% 30.19 in 10.0 mi Calm Calm - N/A   Scattered Clouds
10:15 AM 37.0 °F - 29.5 °F 74% 30.20 in 10.0 mi Calm Calm - N/A   Scattered Clouds
10:35 AM 38.1 °F - 30.9 °F 75% 30.19 in 10.0 mi Calm Calm - N/A   Scattered Clouds
10:55 AM 38.7 °F - 31.1 °F 74% 30.19 in 10.0 mi Calm Calm - N/A   Mostly Cloudy
11:35 AM 39.4 °F 37.2 °F 30.7 °F 71% 30.19 in 10.0 mi SSW 3.5 mph - N/A   Overcast
11:55 AM 40.1 °F - 31.1 °F 70% 30.20 in 10.0 mi Calm Calm - N/A   Overcast
12:15 PM 41.7 °F 39.8 °F 32.2 °F 69% 30.20 in 10.0 mi East 3.5 mph - N/A   Overcast
12:35 PM 42.1 °F - 32.0 °F 67% 30.20 in 10.0 mi Calm Calm - N/A   Overcast
12:55 PM 41.9 °F - 32.0 °F 68% 30.20 in 10.0 mi Calm Calm - N/A   Overcast
1:15 PM 43.2 °F - 32.9 °F 67% 30.19 in 10.0 mi Calm Calm - N/A   Overcast
1:35 PM 43.7 °F - 32.7 °F 65% 30.19 in 10.0 mi Calm Calm - N/A   Overcast
2:15 PM 44.2 °F - 32.2 °F 63% 30.19 in 10.0 mi Calm Calm - N/A   Overcast
2:35 PM 44.8 °F - 32.0 °F 61% 30.19 in 10.0 mi Calm Calm - N/A   Overcast
2:55 PM 45.5 °F 44.2 °F 32.2 °F 60% 30.19 in 10.0 mi SSE 3.5 mph - N/A   Overcast
3:15 PM 46.9 °F - 32.9 °F 58% 30.19 in 10.0 mi Calm Calm - N/A   Overcast
3:35 PM 47.3 °F - 32.7 °F 57% 30.19 in 10.0 mi Calm Calm - N/A   Mostly Cloudy
3:55 PM 48.0 °F - 32.0 °F 54% 30.19 in 10.0 mi Calm Calm - N/A   Scattered Clouds
4:15 PM 48.7 °F - 32.4 °F 53% 30.20 in 10.0 mi West 3.5 mph - N/A   Scattered Clouds
4:35 PM 49.6 °F - 32.5 °F 52% 30.20 in 10.0 mi SSW 4.6 mph - N/A   Scattered Clouds
4:55 PM 49.8 °F - 32.2 °F 51% 30.20 in 10.0 mi Calm Calm - N/A   Clear
5:15 PM 50.5 °F - 32.7 °F 51% 30.21 in 10.0 mi ESE 4.6 mph - N/A   Clear
5:35 PM 50.0 °F - 32.4 °F 51% 30.22 in 10.0 mi Calm Calm - N/A   Clear
6:15 PM 49.1 °F - 32.7 °F 53% 30.23 in 10.0 mi Calm Calm - N/A   Scattered Clouds
6:35 PM 46.8 °F - 34.7 °F 63% 30.24 in 10.0 mi East 3.5 mph - N/A   Scattered Clouds
6:55 PM 44.4 °F 42.9 °F 34.3 °F 68% 30.25 in 10.0 mi East 3.5 mph - N/A   Clear
8:15 PM 41.5 °F - 33.1 °F 72% 30.28 in 10.0 mi Calm Calm - N/A   Clear
8:35 PM 39.2 °F 37.0 °F 33.3 °F 79% 30.29 in 10.0 mi NE 3.5 mph - N/A   Clear
8:55 PM 38.8 °F - 32.9 °F 79% 30.29 in 10.0 mi Calm Calm - N/A   Clear
9:15 PM 37.6 °F - 32.9 °F 83% 30.30 in 10.0 mi Calm Calm - N/A   Clear
10:15 PM 34.5 °F - 32.2 °F 91% 30.32 in 10.0 mi Calm Calm - N/A   Clear
10:35 PM 35.2 °F - 32.9 °F 91% 30.32 in 10.0 mi Calm Calm - N/A   Clear
11:15 PM 35.6 °F - 32.0 °F 87% 30.33 in 10.0 mi Calm Calm - N/A   Clear
11:35 PM 33.6 °F - 31.6 °F 92% 30.34 in 10.0 mi Calm Calm - N/A   Clear
11:55 PM 33.1 °F - 32.0 °F 96% 30.34 in 10.0 mi Calm Calm - N/A   Clear